Henry Tift Myers AP, Tifton,, GA

1:53 AM EST on November 20, 2019 (GMT -0500)
Myers

Weather History for KTMA - October, 2019

Change the Weather History Date:

Monday, October 21, 2019

  Actual Average Record
Temperature  
Mean Temperature 69 °F -  
Max Temperature 82 °F 76 °F 82 °F (2017)
Min Temperature 56 °F 52 °F 51 °F (2018)
Cooling Degree Days 4    
Growing Degree Days 19 (Base 50)    
Moisture  
Dew Point 64 °F    
Average Humidity 85    
Maximum Humidity 100    
Minimum Humidity 56    
Precipitation  
Precipitation 0.00 in - - ()
Sea Level Pressure  
Sea Level Pressure 29.97 in    
Wind  
Wind Speed 2 mph ()    
Max Wind Speed 12 mph    
Max Gust Speed 16 mph    
Visibility 9.3 miles    
Events      
Averages and records for this station are not official NWS values.
T = Trace of Precipitation, MM = Missing Value Source: Averaged Metar Reports

Daily Weather History Graph

Daily Weather History Graph

Search for Another Location

Airport or City:

Astronomy

Oct. 21, 2019 Rise Set
Actual Time 7:41 AM EDT 6:55 PM EDT
Civil Twilight 7:16 AM EDT 7:20 PM EDT
Nautical Twilight 6:48 AM EDT 7:48 PM EDT
Astronomical Twilight 6:19 AM EDT 8:16 PM EDT
Moon 12:18 AM EDT (10/21) 2:45 PM EDT (10/21)
Length of Visible Light 12h 03m
Length of Day
11h 14m
Waning Gibbous, 48% of the Moon is Illuminated
Oct 21
Waning Gibbous
Oct 27
New
Nov 4
First Quarter
Nov 12
Full
Nov 19
Last Quarter

Hourly Weather History & Observations

Time (EDT) Temp. Heat Index Dew Point Humidity Pressure Visibility Wind Dir Wind Speed Gust Speed Precip Events Conditions
12:15 AM 61.2 °F - 61.0 °F 99% 29.98 in 10.0 mi Calm Calm - N/A   Clear
12:35 AM 60.3 °F - 60.3 °F 100% 29.98 in 10.0 mi Calm Calm - N/A   Clear
12:55 AM 60.1 °F - 60.1 °F 100% 29.98 in 10.0 mi Calm Calm - N/A   Clear
1:15 AM 59.9 °F - 59.7 °F 99% 29.97 in 10.0 mi Calm Calm - N/A   Clear
1:35 AM 59.5 °F - 59.5 °F 100% 29.98 in 10.0 mi Calm Calm - N/A   Clear
1:55 AM 59.2 °F - 59.2 °F 100% 29.98 in 10.0 mi Calm Calm - N/A   Clear
2:15 AM 58.6 °F - 58.6 °F 100% 29.98 in 10.0 mi Calm Calm - N/A   Clear
2:35 AM 58.8 °F - 58.8 °F 100% 29.98 in 10.0 mi Calm Calm - N/A   Clear
2:55 AM 58.5 °F - 58.3 °F 99% 29.98 in 10.0 mi Calm Calm - N/A   Clear
3:15 AM 58.6 °F - 58.5 °F 99% 29.97 in 10.0 mi Calm Calm - N/A   Clear
3:35 AM 58.1 °F - 58.1 °F 100% 29.97 in 10.0 mi Calm Calm - N/A   Clear
3:55 AM 59.2 °F - 59.2 °F 100% 29.97 in 10.0 mi Calm Calm - N/A   Clear
4:15 AM 58.3 °F - 58.3 °F 100% 29.96 in 7.0 mi Calm Calm - N/A   Clear
4:35 AM 58.1 °F - 58.1 °F 100% 29.96 in 10.0 mi Calm Calm - N/A   Clear
4:55 AM 57.9 °F - 57.9 °F 100% 29.96 in 7.0 mi Calm Calm - N/A   Clear
5:15 AM 57.4 °F - 57.4 °F 100% 29.96 in 7.0 mi Calm Calm - N/A   Clear
5:35 AM 59.0 °F - 59.0 °F 100% 29.97 in 2.5 mi Calm Calm - N/A   Clear
5:55 AM 57.0 °F - 57.0 °F 100% 29.96 in 3.0 mi Calm Calm - N/A   Scattered Clouds
6:15 AM 57.4 °F - 57.4 °F 100% 29.97 in 7.0 mi Calm Calm - N/A   Clear
6:35 AM 57.2 °F - 57.2 °F 100% 29.97 in 7.0 mi Calm Calm - N/A   Clear
6:55 AM 56.7 °F - 56.7 °F 100% 29.98 in 7.0 mi Calm Calm - N/A   Clear
7:15 AM 56.7 °F - 56.7 °F 100% 29.98 in 7.0 mi Calm Calm - N/A   Clear
7:35 AM 56.7 °F - 56.7 °F 100% 29.98 in 7.0 mi Calm Calm - N/A   Clear
7:55 AM 57.0 °F - 57.0 °F 100% 29.98 in 7.0 mi Calm Calm - N/A   Clear
8:15 AM 57.2 °F - 57.2 °F 100% 29.99 in 7.0 mi Calm Calm - N/A   Clear
8:35 AM 59.2 °F - 59.2 °F 100% 29.99 in 7.0 mi ESE 3.5 mph - N/A   Clear
8:55 AM 61.5 °F - 61.3 °F 99% 30.00 in 10.0 mi SE 4.6 mph - N/A   Clear
9:15 AM 63.0 °F - 62.4 °F 98% 30.01 in 10.0 mi SE 4.6 mph - N/A   Clear
9:35 AM 64.4 °F - 63.3 °F 96% 30.01 in 10.0 mi SE 5.8 mph - N/A   Clear
9:55 AM 65.8 °F - 63.5 °F 92% 30.01 in 10.0 mi SE 8.1 mph - N/A   Scattered Clouds
10:15 AM 67.5 °F - 64.0 °F 89% 30.01 in 10.0 mi SE 8.1 mph - N/A   Clear
10:35 AM 69.6 °F - 64.6 °F 84% 30.01 in 10.0 mi ESE 5.8 mph - N/A   Clear
10:55 AM 70.7 °F - 64.6 °F 81% 30.00 in 10.0 mi SE 6.9 mph - N/A   Clear
11:15 AM 72.7 °F - 64.6 °F 76% 30.01 in 10.0 mi SE 8.1 mph - N/A   Clear
11:35 AM 73.4 °F - 64.4 °F 73% 30.01 in 10.0 mi ESE 5.8 mph - N/A   Clear
11:55 AM 74.5 °F - 64.4 °F 71% 30.01 in 10.0 mi SSE 8.1 mph - N/A   Clear
12:15 PM 75.7 °F - 64.9 °F 69% 30.01 in 10.0 mi SSE 5.8 mph - N/A   Clear
12:35 PM 76.5 °F - 65.1 °F 68% 30.00 in 10.0 mi ESE 5.8 mph - N/A   Clear
12:55 PM 78.1 °F - 65.8 °F 66% 30.00 in 10.0 mi South 4.6 mph - N/A   Scattered Clouds
1:15 PM 79.0 °F - 65.7 °F 64% 29.99 in 10.0 mi SSE 8.1 mph - N/A   Scattered Clouds
1:35 PM 79.3 °F - 65.7 °F 63% 29.98 in 10.0 mi SSE 8.1 mph - N/A   Clear
1:55 PM 80.6 °F 82.5 °F 65.5 °F 60% 29.97 in 10.0 mi ESE 4.6 mph - N/A   Scattered Clouds
2:15 PM 80.6 °F 82.4 °F 64.9 °F 59% 29.97 in 10.0 mi SSE 5.8 mph - N/A   Mostly Cloudy
2:35 PM 81.7 °F 83.5 °F 65.1 °F 57% 29.97 in 10.0 mi South 6.9 mph 16.1 mph N/A   Mostly Cloudy
2:55 PM 82.8 °F 84.7 °F 65.7 °F 56% 29.96 in 10.0 mi SSE 10.4 mph - N/A   Mostly Cloudy
3:15 PM 81.7 °F 83.6 °F 65.8 °F 58% 29.96 in 10.0 mi SSE 11.5 mph 16.1 mph N/A   Mostly Cloudy
3:35 PM 80.6 °F 82.5 °F 65.7 °F 60% 29.96 in 10.0 mi SSE 6.9 mph - N/A   Mostly Cloudy
3:55 PM 81.3 °F 83.3 °F 65.8 °F 59% 29.96 in 10.0 mi South 6.9 mph - N/A   Overcast
4:15 PM 81.0 °F 82.9 °F 65.5 °F 59% 29.96 in 10.0 mi South 5.8 mph - N/A   Overcast
4:35 PM 81.3 °F 83.3 °F 65.8 °F 59% 29.95 in 10.0 mi South 8.1 mph - N/A   Mostly Cloudy
4:55 PM 81.5 °F 83.7 °F 66.4 °F 60% 29.94 in 10.0 mi South 6.9 mph - N/A   Mostly Cloudy
5:15 PM 81.7 °F 84.2 °F 67.3 °F 61% 29.94 in 10.0 mi SSW 6.9 mph - N/A   Overcast
5:35 PM 81.0 °F 83.4 °F 67.5 °F 63% 29.93 in 10.0 mi SSE 4.6 mph - N/A   Mostly Cloudy
5:55 PM 80.1 °F 82.4 °F 67.5 °F 65% 29.93 in 10.0 mi SE 3.5 mph - N/A   Scattered Clouds
6:15 PM 78.8 °F - 68.2 °F 70% 29.93 in 10.0 mi SSE 3.5 mph - N/A   Scattered Clouds
6:35 PM 77.9 °F - 68.4 °F 72% 29.93 in 10.0 mi SE 4.6 mph - N/A   Scattered Clouds
6:55 PM 77.4 °F - 68.9 °F 75% 29.94 in 10.0 mi SSE 5.8 mph - N/A   Scattered Clouds
7:15 PM 76.5 °F - 69.3 °F 78% 29.95 in 10.0 mi SSE 4.6 mph - N/A   Mostly Cloudy
7:35 PM 76.1 °F - 69.4 °F 80% 29.95 in 10.0 mi SE 3.5 mph - N/A   Mostly Cloudy
7:55 PM 74.8 °F - 69.8 °F 84% 29.95 in 10.0 mi SE 4.6 mph - N/A   Scattered Clouds
8:15 PM 74.7 °F - 69.8 °F 85% 29.96 in 10.0 mi SSE 5.8 mph - N/A   Scattered Clouds
8:35 PM 74.3 °F - 69.8 °F 86% 29.97 in 10.0 mi SSE 3.5 mph - N/A   Mostly Cloudy
8:55 PM 74.3 °F - 69.8 °F 86% 29.96 in 10.0 mi SE 3.5 mph - N/A   Overcast
9:15 PM 73.6 °F - 69.8 °F 88% 29.96 in 10.0 mi Calm Calm - N/A   Mostly Cloudy
9:35 PM 73.6 °F - 70.0 °F 88% 29.96 in 10.0 mi SE 3.5 mph - N/A   Overcast
9:55 PM 73.6 °F - 70.0 °F 88% 29.96 in 10.0 mi SSE 3.5 mph - N/A   Mostly Cloudy
10:15 PM 73.4 °F - 70.2 °F 90% 29.97 in 10.0 mi SE 3.5 mph - N/A   Mostly Cloudy
10:35 PM 72.9 °F - 70.2 °F 91% 29.98 in 10.0 mi SE 3.5 mph - N/A   Scattered Clouds
10:55 PM 72.5 °F - 70.3 °F 93% 29.97 in 10.0 mi SE 4.6 mph - N/A   Scattered Clouds
11:15 PM 72.5 °F - 70.7 °F 94% 29.98 in 10.0 mi SSE 4.6 mph - N/A   Mostly Cloudy
11:35 PM 72.5 °F - 71.1 °F 95% 29.98 in 10.0 mi SSE 4.6 mph - N/A   Overcast
11:55 PM 72.7 °F - 71.2 °F 95% 29.98 in 10.0 mi SSE 3.5 mph - N/A   Overcast